Simultaneous Nadir Overpasses (SNOs) Predictions

Prediction of SNOs between AQUA and NPP Satellite Orbit:

Table of predicted SNOs for the next 14.0 days since TLE Epoch: 11/19/2022
Index Date (AQUA) Time (AQUA) Lat,Lon (AQUA) SZA (AQUA ) Date (NPP) Time (NPP) Lat,Lon (NPP) SZA (NPP ) Distance(km) Time Diff (sec)
1 11/21/2022 01:45:33 -72.58,-153.44 61.29 11/21/2022 01:44:20 -72.80,-154.98 60.91 56.50 73
2 11/21/2022 02:32:39 79.19, 36.57 111.72 11/21/2022 02:32:40 79.20, 36.64 111.70 1.63 1
3 11/23/2022 17:09:31 78.67, 174.32 112.96 11/23/2022 17:08:17 78.69, 174.37 113.00 2.95 74
4 11/23/2022 17:58:45 -79.18, -15.04 67.68 11/23/2022 17:58:49 -79.18, -14.99 67.70 1.28 4
5 11/26/2022 08:35:33 -78.76, 123.32 66.62 11/26/2022 08:34:23 -78.75, 123.23 66.54 2.14 70
6 11/26/2022 09:24:47 79.20, -66.42 112.84 11/26/2022 09:24:55 79.20, -66.42 112.83 0.17 8
7 11/29/2022 00:01:34 78.84, 72.25 113.80 11/29/2022 00:00:28 78.83, 72.22 113.86 0.62 66
8 11/29/2022 00:50:52 -79.18,-118.00 66.65 11/29/2022 00:51:04 -79.18,-118.08 66.64 1.78 12
9 12/01/2022 15:27:36 -78.93, 21.29 65.86 12/01/2022 15:26:34 -78.93, 21.30 65.82 0.33 62



Historial Predications of SNOs between AQUA and NPP
